DW8231 Weather Reports


Display with metric or nautical units.
time (UTC)temp
F
wind
direction
speed
MPH
gust
MPH
rain 1hr
in
rain 24hr
in
rain mn
in
humidity
%
barometer
mb
20260508142542 56 221 2.0 9.0 0.00 0.00 0.00 37 1007.3
20260508142041 56 221 3.0 9.0 0.00 0.00 0.00 37 1007.3
20260508141553 55 224 4.0 10.0 0.00 0.00 0.00 37 1007.4
20260508140538 55 207 4.0 10.0 0.00 0.00 0.00 38 1007.5
20260508140040 55 219 4.0 10.0 0.00 0.00 0.00 37 1007.5
20260508135538 55 221 4.0 8.0 0.00 0.00 0.00 38 1007.5
20260508135035 54 219 3.0 9.0 0.00 0.00 0.00 41 1007.6
20260508134539 53 200 4.0 9.0 0.00 0.00 0.00 40 1007.7
20260508134032 52 225 3.0 6.0 0.00 0.00 0.00 42 1007.8
20260508133531 52 226 3.0 6.0 0.00 0.00 0.00 43 1007.8
20260508133030 51 225 2.0 5.0 0.00 0.00 0.00 44 1007.8
20260508132532 50 226 1.0 5.0 0.00 0.00 0.00 44 1007.9
20260508132027 50 226 3.0 6.0 0.00 0.00 0.00 44 1008.0
20260508131525 49 227 3.0 7.0 0.00 0.00 0.00 45 1007.9
20260508130524 48 233 2.0 7.0 0.00 0.00 0.00 45 1008.1
20260508130023 48 205 1.0 5.0 0.00 0.00 0.00 46 1008.0
20260508125522 47 205 3.0 7.0 0.00 0.00 0.00 46 1008.0
20260508125021 47 219 1.0 6.0 0.00 0.00 0.00 46 1008.0
20260508124519 46 219 2.0 6.0 0.00 0.00 0.00 47 1008.1
20260508124017 46 221 2.0 6.0 0.00 0.00 0.00 47 1008.1
20260508123522 45 220 3.0 6.0 0.00 0.00 0.00 48 1008.0
20260508123015 45 221 2.0 6.0 0.00 0.00 0.00 48 1008.0
20260508122515 45 234 1.0 5.0 0.00 0.00 0.00 49 1008.0
20260508122012 44 234 2.0 5.0 0.00 0.00 0.00 49 1008.1
20260508121510 44 237 1.0 5.0 0.00 0.00 0.00 50 1008.0
20260508120509 43 236 0.0 3.0 0.00 0.00 0.00 51 1008.1
20260508120007 42 236 1.0 3.0 0.00 0.00 0.00 51 1008.1
20260508115506 42 236 0.0 3.0 0.00 0.00 0.00 51 1008.0
20260508115006 42 236 0.0 3.0 0.00 0.00 0.00 51 1008.0
20260508114505 42 236 0.0 3.0 0.00 0.00 0.00 51 1008.0
20260508114004 41 236 0.0 3.0 0.00 0.00 0.00 51 1008.0
20260508113504 41 236 0.0 3.0 0.00 0.00 0.00 51 1008.0
20260508113008 41 236 0.0 3.0 0.00 0.00 0.00 51 1008.0
20260508112503 41 236 0.0 4.0 0.00 0.00 0.00 51 1008.0
20260508112003 41 236 1.0 4.0 0.00 0.00 0.00 51 1008.0
20260508111503 41 236 1.0 4.0 0.00 0.00 0.00 51 1008.0
20260508110503 41 236 1.0 4.0 0.00 0.00 0.00 51 1007.9
20260508110012 41 236 1.0 4.0 0.00 0.00 0.00 51 1007.9
20260508105503 41 236 0.0 5.0 0.00 0.00 0.00 50 1007.8
20260508105002 41 236 1.0 5.0 0.00 0.00 0.00 50 1007.8
20260508104502 41 236 1.0 4.0 0.00 0.00 0.00 50 1007.8
20260508104003 41 236 1.0 4.0 0.00 0.00 0.00 50 1007.9
20260508103502 41 236 1.0 4.0 0.00 0.00 0.00 50 1007.9
20260508103001 41 236 0.0 3.0 0.00 0.00 0.00 51 1008.0
20260508102503 41 236 1.0 5.0 0.00 0.00 0.00 50 1007.9
20260508102001 41 236 2.0 5.0 0.00 0.00 0.00 50 1008.0
20260508101501 41 236 1.0 5.0 0.00 0.00 0.00 50 1007.9
20260508100500 41 236 1.0 4.0 0.00 0.00 0.00 50 1008.0
20260508100105 41 236 1.0 4.0 0.00 0.00 0.00 50 1008.0
20260508100001 41 236 1.0 4.0 0.00 0.00 0.00 50 1008.0
20260508095601 41 236 0.0 3.0 0.00 0.00 0.00 50 1008.0
20260508095059 41 236 0.0 3.0 0.00 0.00 0.00 50 1008.0
20260508094616 41 236 1.0 3.0 0.00 0.00 0.00 49 1008.0
20260508094059 41 236 0.0 5.0 0.00 0.00 0.00 49 1008.1
20260508093604 41 236 0.0 5.0 0.00 0.00 0.00 49 1008.2
20260508093059 42 236 0.0 2.0 0.00 0.00 0.00 49 1008.1
20260508092600 42 236 0.0 1.0 0.00 0.00 0.00 49 1008.1
20260508092058 42 236 0.0 2.0 0.00 0.00 0.00 49 1008.1
20260508091604 42 236 0.0 3.0 0.00 0.00 0.00 49 1008.1
20260508091159 42 236 0.0 2.0 0.00 0.00 0.00 48 1008.2
20260508090600 42 236 0.0 2.0 0.00 0.00 0.00 48 1008.1
20260508090059 42 236 0.0 4.0 0.00 0.00 0.00 48 1008.1
20260508085557 42 236 0.0 4.0 0.00 0.00 0.00 48 1008.2
20260508085057 42 236 1.0 4.0 0.00 0.00 0.00 48 1008.1
20260508084558 42 236 1.0 4.0 0.00 0.00 0.00 48 1008.1
20260508084057 42 236 2.0 4.0 0.00 0.00 0.00 48 1008.1
20260508083556 42 236 1.0 3.0 0.00 0.00 0.00 48 1008.1
20260508083057 42 236 1.0 3.0 0.00 0.00 0.00 48 1008.3
20260508082600 42 236 1.0 3.0 0.00 0.00 0.00 49 1008.2
20260508082056 42 236 1.0 3.0 0.00 0.00 0.00 49 1008.2
20260508081618 42 236 1.0 3.0 0.00 0.00 0.00 49 1008.3
20260508081155 42 236 1.0 2.0 0.00 0.00 0.00 49 1008.4
20260508080556 42 236 1.0 3.0 0.00 0.00 0.00 49 1008.4
20260508080056 42 236 1.0 3.0 0.00 0.00 0.00 49 1008.4
20260508075557 42 236 1.0 3.0 0.00 0.00 0.00 49 1008.4
20260508075056 42 236 0.0 3.0 0.00 0.00 0.00 49 1008.4
20260508074555 42 236 0.0 3.0 0.00 0.00 0.00 49 1008.4
20260508074055 42 236 1.0 3.0 0.00 0.00 0.00 49 1008.5
20260508073556 42 236 0.0 2.0 0.00 0.00 0.00 49 1008.5
20260508073055 42 236 1.0 3.0 0.00 0.00 0.00 49 1008.6
20260508072554 43 236 1.0 3.0 0.00 0.00 0.00 49 1008.6
20260508072054 43 236 0.0 3.0 0.00 0.00 0.00 49 1008.6
20260508071557 43 236 1.0 3.0 0.00 0.00 0.00 49 1008.7
20260508071154 43 236 1.0 3.0 0.00 0.00 0.00 49 1008.7
20260508070557 43 236 1.0 3.0 0.00 0.00 0.00 49 1008.7
20260508070055 43 236 1.0 3.0 0.00 0.00 0.00 49 1008.7
20260508065552 43 236 1.0 3.0 0.00 0.00 0.00 49 1008.7
20260508065053 43 236 1.0 3.0 0.00 0.00 0.00 48 1008.7
20260508064555 43 236 1.0 3.0 0.00 0.00 0.00 48 1008.8
20260508064056 43 236 1.0 3.0 0.00 0.00 0.00 48 1008.8
20260508063552 44 236 2.0 3.0 0.00 0.00 0.00 47 1008.8
20260508063102 44 236 0.0 4.0 0.00 0.00 0.00 47 1008.9
20260508062551 44 236 0.0 4.0 0.00 0.00 0.00 47 1009.0
20260508062051 44 236 0.0 4.0 0.00 0.00 0.00 47 1008.9
20260508061555 44 236 2.0 4.0 0.00 0.00 0.00 47 1009.0
20260508061151 44 236 1.0 3.0 0.00 0.00 0.00 48 1009.1
20260508060549 44 236 1.0 3.0 0.00 0.00 0.00 47 1009.1
20260508060054 45 236 1.0 3.0 0.00 0.00 0.00 47 1009.1
20260508055551 45 237 1.0 5.0 0.00 0.00 0.00 46 1009.1
20260508055054 45 246 1.0 5.0 0.00 0.00 0.00 45 1009.0
20260508054550 45 251 1.0 3.0 0.00 0.00 0.00 45 1009.1
20260508054048 45 251 0.0 3.0 0.00 0.00 0.00 45 1009.1
20260508053551 46 251 0.0 3.0 0.00 0.00 0.00 45 1009.0
20260508053048 46 256 0.0 3.0 0.00 0.00 0.00 44 1009.2
20260508052549 46 256 1.0 3.0 0.00 0.00 0.00 44 1009.2
20260508052048 46 256 1.0 4.0 0.00 0.00 0.00 43 1009.1
20260508051547 46 256 1.0 4.0 0.00 0.00 0.00 42 1009.2
20260508051148 47 257 1.0 4.0 0.00 0.00 0.00 42 1009.2
20260508050550 47 257 0.0 3.0 0.00 0.00 0.00 42 1009.2
20260508050050 47 258 1.0 3.0 0.00 0.00 0.00 42 1009.2
20260508045549 47 258 1.0 3.0 0.00 0.00 0.00 42 1009.2
20260508045049 47 258 1.0 4.0 0.00 0.00 0.00 41 1009.4
20260508044549 47 258 1.0 4.0 0.00 0.00 0.00 41 1009.4
20260508044051 47 259 1.0 3.0 0.00 0.00 0.00 41 1009.4
20260508043548 47 259 1.0 4.0 0.00 0.00 0.00 41 1009.4
20260508043051 47 259 1.0 6.0 0.00 0.00 0.00 40 1009.5
20260508042548 48 259 1.0 6.0 0.00 0.00 0.00 40 1009.5
20260508042049 48 261 1.0 3.0 0.00 0.00 0.00 39 1009.6
20260508041548 48 262 0.0 2.0 0.00 0.00 0.00 39 1009.5
20260508041148 48 262 0.0 2.0 0.00 0.00 0.00 38 1009.5
20260508040548 48 262 0.0 2.0 0.00 0.00 0.00 38 1009.6
20260508040054 49 262 0.0 2.0 0.00 0.00 0.00 38 1009.6
20260508035552 49 262 0.0 2.0 0.00 0.00 0.00 38 1009.6
20260508035048 49 262 0.0 3.0 0.00 0.00 0.00 38 1009.7
20260508034548 49 262 0.0 3.0 0.00 0.00 0.00 38 1009.7
20260508034047 49 262 0.0 3.0 0.00 0.00 0.00 37 1009.8
20260508033547 49 262 0.0 2.0 0.00 0.00 0.00 37 1009.7
20260508033046 50 262 0.0 0.0 0.00 0.00 0.00 37 1009.7
20260508032550 50 262 0.0 0.0 0.00 0.00 0.00 37 1009.7
20260508032046 50 262 0.0 0.0 0.00 0.00 0.00 37 1009.8
20260508031546 50 262 0.0 0.0 0.00 0.00 0.00 36 1009.7
20260508031147 50 262 0.0 0.0 0.00 0.00 0.00 35 1009.7
20260508030547 50 262 0.0 0.0 0.00 0.00 0.00 35 1009.7
20260508030048 50 262 0.0 0.0 0.00 0.00 0.00 35 1009.8
20260508025549 50 262 0.0 0.0 0.00 0.00 0.00 35 1009.8
20260508025046 51 262 0.0 0.0 0.00 0.00 0.00 35 1009.7
20260508024551 51 262 0.0 0.0 0.00 0.00 0.00 35 1009.7
20260508024046 51 262 0.0 0.0 0.00 0.00 0.00 35 1009.7
20260508023546 51 262 0.0 1.0 0.00 0.00 0.00 36 1009.7
20260508023046 51 262 0.0 1.0 0.00 0.00 0.00 36 1009.6
20260508022546 51 262 0.0 1.0 0.00 0.00 0.00 36 1009.7
20260508022048 52 262 0.0 1.0 0.00 0.00 0.00 36 1009.7
20260508021549 52 262 0.0 0.0 0.00 0.00 0.00 35 1009.7
20260508021149 53 262 0.0 0.0 0.00 0.00 0.00 32 1009.6
20260508020545 53 262 0.0 0.0 0.00 0.00 0.00 32 1009.6
20260508020046 53 262 0.0 0.0 0.00 0.00 0.00 32 1009.6
20260508015545 53 262 0.0 2.0 0.00 0.00 0.00 31 1009.4
20260508015045 53 262 0.0 2.0 0.00 0.00 0.00 31 1009.4
20260508014550 53 262 0.0 2.0 0.00 0.00 0.00 31 1009.4
20260508014045 53 262 0.0 2.0 0.00 0.00 0.00 31 1009.4
20260508013544 54 262 0.0 3.0 0.00 0.00 0.00 31 1009.3
20260508013047 54 262 0.0 3.0 0.00 0.00 0.00 31 1009.3
20260508012545 54 262 0.0 3.0 0.00 0.00 0.00 31 1009.3
20260508012045 54 262 0.0 3.0 0.00 0.00 0.00 31 1009.3
20260508011545 54 262 0.0 3.0 0.00 0.00 0.00 30 1009.3
20260508011146 55 262 1.0 9.0 0.00 0.00 0.00 30 1009.2
20260508010544 55 262 3.0 9.0 0.00 0.00 0.00 30 1009.2
20260508010045 55 263 2.0 7.0 0.00 0.00 0.00 29 1009.3
20260508005544 56 261 2.0 7.0 0.00 0.00 0.00 29 1009.3
20260508005047 56 259 1.0 8.0 0.00 0.00 0.00 29 1009.3
20260508004546 56 259 3.0 8.0 0.00 0.00 0.00 28 1009.2
20260508004044 56 275 3.0 7.0 0.00 0.00 0.00 28 1009.3
20260508003543 56 275 2.0 9.0 0.00 0.00 0.00 29 1009.3
20260508003044 56 276 3.0 10.0 0.00 0.00 0.00 28 1009.2
20260508002543 56 243 2.0 10.0 0.00 0.00 0.00 28 1009.2
20260508002043 57 288 3.0 10.0 0.00 0.00 0.00 27 1009.2
20260508001542 57 262 3.0 10.0 0.00 0.00 0.00 27 1009.3
20260508001144 57 298 4.0 9.0 0.00 0.00 0.00 27 1009.4
20260508000543 57 297 4.0 10.0 0.00 0.00 0.00 28 1009.4
20260508000047 57 284 4.0 10.0 0.00 0.00 0.00 27 1009.4
20260507235541 57 296 4.0 11.0 0.00 0.00 0.00 26 1009.5
20260507235044 57 250 2.0 11.0 0.00 0.00 0.00 28 1009.5
20260507234541 57 259 3.0 14.0 0.00 0.00 0.00 26 1009.6
20260507234041 57 234 6.0 14.0 0.00 0.00 0.00 26 1009.6
20260507233542 57 226 4.0 11.0 0.00 0.00 0.00 26 1009.6
20260507233044 57 264 4.0 12.0 0.00 0.00 0.00 26 1009.6
20260507232541 57 236 4.0 12.0 0.00 0.00 0.00 27 1009.7
20260507232039 57 254 5.0 12.0 0.00 0.00 0.00 26 1009.7
20260507231539 57 272 7.0 13.0 0.00 0.00 0.00 26 1009.8
20260507231140 57 276 2.0 11.0 0.00 0.00 0.00 25 1009.7
20260507230539 57 275 3.0 11.0 0.00 0.00 0.00 26 1009.8
20260507230045 57 291 5.0 11.0 0.00 0.00 0.00 26 1009.9
20260507225538 57 235 3.0 8.0 0.00 0.00 0.00 26 1009.9
20260507225038 57 242 4.0 8.0 0.00 0.00 0.00 26 1010.0
20260507224542 57 256 1.0 10.0 0.00 0.00 0.00 25 1010.0
20260507224036 57 271 4.0 14.0 0.00 0.00 0.00 26 1010.0
20260507223536 57 225 6.0 14.0 0.00 0.00 0.00 26 1010.1
20260507223036 57 290 3.0 14.0 0.00 0.00 0.00 27 1010.1
20260507222537 57 254 6.0 14.0 0.00 0.00 0.00 26 1010.1
20260507222035 57 263 5.0 12.0 0.00 0.00 0.00 26 1010.1
20260507221539 57 238 5.0 12.0 0.00 0.00 0.00 26 1010.2
20260507221134 57 266 5.0 13.0 0.00 0.00 0.00 27 1010.2
20260507220538 57 250 6.0 10.0 0.00 0.00 0.00 26 1010.3
20260507220036 57 246 5.0 14.0 0.00 0.00 0.00 26 1010.2
20260507215537 57 263 4.0 14.0 0.00 0.00 0.00 27 1010.2
20260507215034 57 211 2.0 13.0 0.00 0.00 0.00 28 1010.2
20260507214539 57 275 3.0 10.0 0.00 0.00 0.00 27 1010.2
20260507214034 57 261 5.0 11.0 0.00 0.00 0.00 27 1010.3
20260507213538 57 265 3.0 11.0 0.00 0.00 0.00 27 1010.3
20260507213042 57 256 5.0 11.0 0.00 0.00 0.00 27 1010.3
20260507212536 57 241 5.0 15.0 0.00 0.00 0.00 28 1010.3
20260507212038 57 244 8.0 15.0 0.00 0.00 0.00 27 1010.4
20260507211534 56 206 5.0 8.0 0.00 0.00 0.00 27 1010.4
20260507211133 56 266 2.0 10.0 0.00 0.00 0.00 28 1010.5
20260507210534 56 186 2.0 10.0 0.00 0.00 0.00 28 1010.5
20260507210033 56 244 6.0 17.0 0.00 0.00 0.00 27 1010.6
20260507205533 57 288 9.0 17.0 0.00 0.00 0.00 26 1010.5
20260507205032 57 238 4.0 10.0 0.00 0.00 0.00 27 1010.5
20260507204531 57 236 5.0 10.0 0.00 0.00 0.00 26 1010.6
20260507204030 57 236 1.0 10.0 0.00 0.00 0.00 26 1010.7
20260507203530 56 249 3.0 10.0 0.00 0.00 0.00 27 1010.8
20260507203038 56 299 0.0 12.0 0.00 0.00 0.00 27 1010.8
20260507202530 56 288 6.0 12.0 0.00 0.00 0.00 26 1010.8
20260507202029 56 290 2.0 10.0 0.00 0.00 0.00 26 1010.9
20260507201530 55 278 3.0 13.0 0.00 0.00 0.00 27 1010.9
20260507201129 56 273 1.0 9.0 0.00 0.00 0.00 27 1011.0
20260507200527 56 273 2.0 9.0 0.00 0.00 0.00 28 1011.0
20260507200028 56 292 3.0 9.0 0.00 0.00 0.00 27 1011.2
20260507195526 56 287 2.0 9.0 0.00 0.00 0.00 27 1011.1
20260507195026 56 317 2.0 12.0 0.00 0.00 0.00 27 1011.1
20260507194525 55 252 5.0 12.0 0.00 0.00 0.00 28 1011.1
20260507194024 55 252 3.0 9.0 0.00 0.00 0.00 27 1011.2
20260507193527 55 252 4.0 9.0 0.00 0.00 0.00 27 1011.2
20260507193023 55 249 2.0 8.0 0.00 0.00 0.00 27 1011.3
20260507192523 55 265 1.0 8.0 0.00 0.00 0.00 27 1011.3
20260507192023 55 267 6.0 9.0 0.00 0.00 0.00 28 1011.3
20260507191522 54 5 0.0 8.0 0.00 0.00 0.00 27 1011.3
20260507191124 54 290 2.0 7.0 0.00 0.00 0.00 27 1011.5
20260507190600 54 290 2.0 7.0 0.00 0.00 0.00 27 1011.4
20260507190105 54 296 3.0 10.0 0.00 0.00 0.00 27 1011.5
20260507185603 54 275 4.0 10.0 0.00 0.00 0.00 28 1011.5
20260507185059 54 270 3.0 9.0 0.00 0.00 0.00 28 1011.5
20260507184602 54 273 3.0 12.0 0.00 0.00 0.00 30 1011.4
20260507184057 53 240 3.0 12.0 0.00 0.00 0.00 30 1011.4
20260507183049 53 284 4.0 12.0 0.00 0.00 0.00 30 1011.5
20260507182547 53 208 5.0 12.0 0.00 0.00 0.00 30 1011.5
20260507182051 53 244 5.0 9.0 0.00 0.00 0.00 29 1011.5
20260507181547 53 277 0.0 15.0 0.00 0.00 0.00 29 1011.6
20260507181046 52 277 5.0 15.0 0.00 0.00 0.00 29 1011.8
20260507180549 53 298 4.0 10.0 0.00 0.00 0.00 29 1011.7
20260507180049 53 288 6.0 12.0 0.00 0.00 0.00 30 1011.7
20260507175550 53 315 1.0 8.0 0.00 0.00 0.00 29 1011.6
20260507175046 53 246 4.0 11.0 0.00 0.00 0.00 31 1011.9
20260507174546 53 263 4.0 11.0 0.00 0.00 0.00 29 1012.0
20260507174043 53 293 1.0 10.0 0.00 0.00 0.00 31 1012.0
20260507173642 52 238 5.0 14.0 0.00 0.00 0.00 30 1012.2
20260507173042 52 290 4.0 14.0 0.00 0.00 0.00 32 1012.2
20260507172545 52 254 6.0 11.0 0.00 0.00 0.00 30 1012.1
20260507172041 52 271 1.0 7.0 0.00 0.00 0.00 30 1012.2
20260507171542 52 258 1.0 9.0 0.00 0.00 0.00 33 1012.3
20260507171040 52 257 1.0 9.0 0.00 0.00 0.00 34 1012.3
20260507170539 51 294 1.0 5.0 0.00 0.00 0.00 33 1012.4
20260507170038 52 295 1.0 5.0 0.00 0.00 0.00 34 1012.4
20260507165536 51 293 1.0 7.0 0.00 0.00 0.00 34 1012.4
20260507165038 51 294 3.0 10.0 0.00 0.00 0.00 33 1012.5
20260507164542 51 18 2.0 10.0 0.00 0.00 0.00 33 1012.5
20260507164034 51 281 2.0 5.0 0.00 0.00 0.00 34 1012.5
20260507163633 51 279 1.0 5.0 0.00 0.00 0.00 33 1012.6
20260507163034 51 279 1.0 5.0 0.00 0.00 0.00 33 1012.6
20260507162533 51 243 1.0 4.0 0.00 0.00 0.00 35 1012.6
20260507162032 51 238 0.0 4.0 0.00 0.00 0.00 36 1012.6
20260507161530 51 237 0.0 3.0 0.00 0.00 0.00 37 1012.7
20260507161030 50 237 0.0 4.0 0.00 0.00 0.00 40 1012.7
20260507160529 49 237 0.0 9.0 0.00 0.00 0.00 41 1012.7
20260507160028 49 242 5.0 9.0 0.00 0.00 0.00 40 1012.8
20260507155528 49 236 1.0 9.0 0.00 0.00 0.00 39 1012.9
20260507155028 50 248 3.0 9.0 0.00 0.00 0.00 39 1012.9
20260507154527 51 262 1.0 4.0 0.00 0.00 0.00 40 1012.9
20260507154025 50 263 1.0 4.0 0.00 0.00 0.00 41 1013.0
20260507153626 49 263 0.0 7.0 0.00 0.00 0.00 42 1013.0
20260507153024 48 263 0.0 7.0 0.00 0.00 0.00 42 1013.0
20260507152522 48 263 3.0 7.0 0.00 0.00 0.00 43 1013.0
20260507152021 48 232 2.0 7.0 0.00 0.00 0.00 43 1013.0
20260507151521 48 112 1.0 7.0 0.00 0.00 0.00 45 1013.0
20260507151020 49 271 2.0 5.0 0.00 0.00 0.00 44 1013.0
20260507150519 48 277 0.0 5.0 0.00 0.00 0.00 45 1012.9
20260507150024 49 278 2.0 4.0 0.00 0.00 0.00 45 1013.0
20260507145520 48 279 0.0 3.0 0.00 0.00 0.00 46 1013.0
20260507145016 48 279 0.0 3.0 0.00 0.00 0.00 46 1013.1
20260507144523 48 279 0.0 2.0 0.00 0.00 0.00 47 1013.1
20260507144014 48 279 0.0 2.0 0.00 0.00 0.00 47 1013.2
20260507143612 47 279 0.0 2.0 0.00 0.00 0.00 48 1013.2
20260507143014 47 279 0.0 2.0 0.00 0.00 0.00 48 1013.3